Regional Weather Roundup
Issued by NWS Wakefield, VA

Home | Current Version | Previous Version | Text Only | Print | Product List | Glossary Off
Versions: 1 2 3 4 5 6 7 8 9 10 11 12 13 14 15 16 17 18 19 20 21 22 23 24 25 26 27 28 29 30 31 32 33 34 35 36 37 38 39 40 41 42 43 44 45 46 47 48 49 50

270
ASUS41 KAKQ 240915
RWRAKQ

REGIONAL WEATHER ROUNDUP
NATIONAL WEATHER SERVICE WAKEFIELD VA
500 AM EDT MON JUL 24 2017

Note: "fair" indicates few or no clouds below 12,000 feet with no
significant weather and/or obstructions to visibility. * = Denotes
station may not report precipitation (e.g., rain,snow,etc.),
thunder or fog.

VAZ042-051-052>054-056-241000-
NORTHERN VIRGINIA

CITY           SKY/WX    TMP DP  RH WIND       PRES   REMARKS
WASH NATIONAL  CLOUDY    76  73  91 SW6       29.72F
DULLES         PTCLDY    73  71  93 W5        29.73F
FORT BELVOIR   CLOUDY    78  70  76 W7        29.71F
QUANTICO       LGT RAIN  81  70  69 NW7       29.71F
FREDERICKSBRG* CLOUDY    78  70  76 MISG      29.72S
STAFFORD*      CLOUDY    78  69  73 SW3       29.76F
WARRENTON      MOCLDY    78  67  69 CALM      29.71F
CULPEPER*      CLOUDY    78  70  76 SW3       29.72F
MANASSAS*      CLOUDY    76  71  85 W5        29.73F
LEESBURG*      MOCLDY    72  72 100 CALM      29.76R FOG
WINCHESTER     CLOUDY    68  66  94 CALM      29.77R
FRONT ROYAL*   CLOUDY    75  64  69 S6        29.76R
LURAY*         PTSUNNY   73  66  78 CALM      29.78R
$$

VAZ048-049-060>072-079>083-241000-
CENTRAL AND SOUTH CENTRAL VIRGINIA

CITY           SKY/WX    TMP DP  RH WIND       PRES   REMARKS
RICHMOND       CLOUDY    72  71  97 S7        29.78F
CHESTERFIELD*  NOT AVBL
PETERSBURG*    CLOUDY    72  67  85 CALM      29.81F
HANOVER        CLOUDY    74  69  85 S7        29.78F
TAPPAHANNOCK*  CLOUDY    74  74 100 S6        29.78S
QUINTON*       FAIR      72  72 100 SW3       29.78F
CHARLOTTSVILLE LGT RAIN  74  71  91 CALM      29.74F
GORDONSVILLE*  MOSUNNY   75  69  82 CALM      29.72F
ORANGE*        CLOUDY    73  68  83 CALM      29.72F
LOUISA*        MOCLDY    73  68  83 S3        29.75R
BUMPASS*       FAIR      72  72  99 SW5       29.75F
FARMVILLE*     MOCLDY    73  70  92 S3        29.78S
CREWE*         FAIR      73  66  78 S3        29.80F
FORT PICKETT*  FAIR      73  68  87 S9        29.81F
CHASE CITY*    FAIR      73  72  99 S5        29.82F
CLARKSVILLE*   PTSUNNY   70  70 100 S6        29.82F
SOUTH HILL*    PTCLDY    70  70  99 S8        29.88F
LAWRENCEVILLE* FAIR      71  69  92 SW6       29.83F
EMPORIA*         N/A     72  68  88 S5        29.84F
$$

VAZ088>098-241000-
SOUTHEAST VIRGINIA

CITY           SKY/WX    TMP DP  RH WIND       PRES   REMARKS
NORFOLK        CLEAR     74  70  87 S10       29.82S
VIRGINIA BEACH MOCLDY    73  68  84 SW9       29.83R
NORFOLK NAVAL  MOCLDY    76  69  79 SW9       29.83S
WEST POINT*    MOCLDY    76  68  76 SW8       29.80S
SALUDA*        FAIR      75  71  85 SW6G16    29.77F
NEWPORT NEWS   PTCLDY    75  69  81 SW14      29.81S
LANGLEY AFB    PTCLDY    76  70  79 SW14      29.81R
FORT EUSTIS    PTCLDY    75  70  82 S9        29.78F
WILLIAMSBURG*  CLEAR     79  70  73 CALM      29.81S
HR EXEC AP*    FAIR      72  66  83 SW8       29.81F
FRANKLIN*      CLEAR    N/A N/A N/A S6        29.84S
US460-WAKEFLD  PTCLDY    73  69  87 SW6       29.82S
$$

VAZ020-022-025-037-045-241000-
WEST CENTRAL AND SOUTHWEST VIRGINIA

CITY           SKY/WX    TMP DP  RH WIND       PRES   REMARKS
STAUNTON*      PTCLDY    70  66  88 CALM      29.82R
WAYNESBORO*    PTSUNNY   70  69  98 W8        29.82S
HOT SPRINGS VA FOG       64  63  94 W14G23    29.96S VSB<1/4
LYNCHBURG      CLOUDY    70  69  97 SW6       29.81S
DANVILLE       PTCLDY    71  70  96 S3        29.83S
SOUTH BOSTON*  PTSUNNY   73  70  91 S5        29.82S
MARTINSVILLE   MOCLDY    70  68  95 NE3       29.85S
ROANOKE        CLOUDY    72  69  90 W8        29.85S
BLACKSBURG     PTCLDY    67  66  94 CALM      29.95R
DUBLIN*        CLOUDY    68  63  84 W6        29.94S
MARION*        CLOUDY    69  65  88 W13       29.99S
HILLSVILLE*    PTCLDY    67  63  86 NW13      29.95R
RICHLANDS*     CLOUDY    67  65  93 W8        30.00R
WISE*          MOCLDY    68  68 100 W7        30.01S
ABINGDON*      CLOUDY    70  70  98 W9        29.98S
$$

MDZ021>025-VAZ099-100-241000-
SOUTHERN MARYLAND AND THE DELMARVA PENINSULA

CITY           SKY/WX    TMP DP  RH WIND       PRES   REMARKS
PATUXENT RIVER CLOUDY    75  72  90 SW14      29.73R
BAY BRIDGE APT NOT AVBL
LEONARDTOWN    PTCLDY    73  70  88 SW10      29.76R
DOVER          PTCLDY    72  72 100 SE3       29.71S
GEORGETOWN     CLOUDY    77  74  90 S7        29.76R
EASTON         CLOUDY    79  71  77 NW7       29.75S
CAMBRIDGE      CLEAR     79  72  78 SW7       29.73R
SALISBURY      NOT AVBL
OCEAN CITY     PTCLDY    79  74  84 SW9       29.76R
WALLOPS ISLAND CLOUDY    78  72  81 SW12      29.77R
ACCOMACK*      MOCLDY    78  71  79 SW10G18   29.78F
$$

NCZ012>017-030>032-241000-
NORTH CENTRAL AND EASTERN NORTH CAROLINA

CITY           SKY/WX    TMP DP  RH WIND       PRES   REMARKS
ROANOKE RAPIDS FAIR      72  68  88 SW5       29.85S
RALEIGH        MOCLDY    72  70  93 S7        29.86F
ELIZABETH CITY MOCLDY    73  73 100 SW6       29.86R
AHOSKIE*         N/A     68  68  99 CALM      29.86R FOG
EDENTON*       CLOUDY    76  73  87 W7        29.87R
CURRITUCK*     MOCLDY   N/A N/A N/A SW6       29.86S
KILL DEVIL HLS CLOUDY    77  72  84 W5        29.85R
MANTEO         CLOUDY    77  74  88 NW8       29.87R
CAPE HATTERAS  MOCLDY    78  75  90 SW12      29.88R
TARBORO*       NOT AVBL
GOLDSBORO      PTCLDY    74  74 100 SW7       29.87R
WASHINGTON     CLOUDY    72  71  96 S3        29.88R
GREENVILLE     CLEAR     72  72 100 SW3       29.90R
NEW BERN       CLOUDY    78  76  93 SW8       29.90R
WILMINGTON     MOCLDY    79  76  90 SW8       29.90R
$$

VAZ048-241000-
ELSEWHERE

CITY           SKY/WX    TMP DP  RH WIND       PRES   REMARKS
HARRISBURG PA  CLOUDY    72  71  97 CALM      29.71F
BALTIMORE      MOCLDY    72  72 100 S3        29.71F
ANNAPOLIS      CLOUDY    76  76 100 NW5       29.70S
ANDREWS AFB    CLOUDY    75  70  84 SW5       29.71F
PHILADELPHIA   CLOUDY    72  70  93 E8        29.74F
HENDERSON NC   PTCLDY    67  65  93 S6        29.85S
GREENSBORO     CLOUDY    72  71  97 S7        29.84S
ROCKY MOUNT    MOCLDY    72  72 100 S6        29.87R
$$

VAZ100-241000-
MARINE

STATION/POSITION TIME  TEMP    WIND        PRES    WAVE   SWELL
                       AIR SEA DIR/SP/G            HT/PER HT/PER
                 (UTC) (F)     (DEG/KT/KT) (MB)    (FT/S) (FT/S)
BRANDYWINE LGT   0848           20/ 12/ 14   N/A
CAPE MAY NJ      0848   75 73  100/  2/  3 1006.5R
LEWES DE         0848   76 72   70/  4/  5 1007.1R
15NM E FENWICK I 0850   76 75  210/ 12/ 16 1008.3R   3/ 6   2/ 7
OCEAN-CITY-INLET 0848   78 71  250/  8/ 12 1008.2R
WACHAPREAGUE VA  0848   78 84  220/  6/ 14 1008.4F
THOMAS POINT MD  0900   77 82  280/ 12/ 13   N/A
COVE POINT MD    0848   78     240/ 16/ 19 1007.4R
SOLOMONS ISLAND  0848          220/ 16/ 19   N/A
BISHOPS HEAD MD  0848   80 82  230/ 21/ 24 1007.2R
PINEY POINT MD   0848          250/  7/ 10   N/A
CAMBRIDGE MD     0848   80 87              1007.4R
LEWISETTA VA     0848   76 85  230/ 14/ 18 1007.4S
RAPPAHANNOCK LGT 0848          220/ 21/ 24 1008.9F
YORK RVR RNG VA  0848   78     240/ 18/ 21 1009.1S
YORKTOWN VA      0848   77 82  210/  8/ 10 1008.6F
DOMINION TERM VA 0848   77     240/ 16/ 17 1009.5F
KIPTOPEKE VA     0848      78  240/ 16/ 19   N/A
CHES BAY BRIDGE  0848   76 78  220/ 12/ 14 1009.6R
CAPE HENRY VA    0848   74     220/  8/ 12   N/A
WILLOUBY STN VA  0848   78     240/ 20/ 23 1008.7F
S CRANEY ISL VA  0848   75     230/  8/ 11 1009.7R
CAPE HENRY BUOY  0830      59                N/A     3/ 9
64NM E OF VA BCH 0850   79 79  260/ 14/ 16 1011.1R   4/ 6   2/ 7
DUCK PIER NC     0848   77 61  260/ 12/ 15 1010.8R
44100 DUCK FRF   0805      74                N/A     3/ 8
44056 DUCK FRF   0900      63                N/A     2/10
OREGON INLET NC  0848          220/ 23/ 26   N/A
HATTERAS NC      0848   78 78  220/ 11/ 16 1011.5R
DIAMOND SHLS NC  0850   82 84  220/ 23/ 29 1011.3R   8/ 7
CAPE LOOKOUT NC  0800   81     220/ 15/ 21 1011.3F
$$




USA.gov is the U.S. government's official web portal to all federal, state and local government web resources and services.